This is the latest recevied weather packets stored in our database for station/object OK1ALX-6. If no packets are shown the sender has not sent any weather packets the latest 10 day(s).
| Time | Temp. | Humidity | Pressure | Rain* | Wind** | Luminosity | Snow |
|---|---|---|---|---|---|---|---|
| 1777590011 | 3.33° C | 77% | 1036.1 hPa | 0 mm | - | 0 W/m² | - |
| 1777589403 | 3.89° C | 75% | 1036.3 hPa | 0 mm | - | 0 W/m² | - |
| 1777588803 | 3.89° C | 75% | 1036.3 hPa | 0 mm | - | 0 W/m² | - |
| 1777588204 | 3.89° C | 74% | 1036.3 hPa | 0 mm | - | 0 W/m² | - |
| 1777587603 | 3.33° C | 76% | 1036.3 hPa | 0 mm | - | 0 W/m² | - |
| 1777587003 | 3.33° C | 76% | 1036.3 hPa | 0 mm | - | 0 W/m² | - |
| 1777586414 | 4.44° C | 77% | 1036.1 hPa | 0 mm | - | 0 W/m² | - |
| 1777585803 | 4.44° C | 75% | 1036 hPa | 0 mm | - | 0 W/m² | - |
| 1777585203 | 4.44° C | 72% | 1036 hPa | 0 mm | - | 0 W/m² | - |
| 1777584603 | 5° C | 71% | 1036 hPa | 0 mm | - | 0 W/m² | - |
| 1777584004 | 5.56° C | 68% | 1036 hPa | 0 mm | - | 0 W/m² | - |
| 1777583403 | 5.56° C | 69% | 1035.9 hPa | 0 mm | - | 0 W/m² | - |
| 1777582803 | 5.56° C | 67% | 1036 hPa | 0 mm | - | 0 W/m² | - |
| 1777582203 | 6.11° C | 65% | 1035.9 hPa | 0 mm | - | 0 W/m² | - |
| 1777581603 | 5.56° C | 67% | 1036 hPa | 0 mm | - | 0 W/m² | - |
| 1777581003 | 5.56° C | 66% | 1035.8 hPa | 0 mm | - | 0 W/m² | - |
| 1777580403 | 6.11° C | 65% | 1036.2 hPa | 0 mm | - | 0 W/m² | - |
| 1777579803 | 6.11° C | 64% | 1036.1 hPa | 0 mm | - | 0 W/m² | - |
| 1777579203 | 6.67° C | 64% | 1035.8 hPa | 0 mm | - | 0 W/m² | - |
| 1777578603 | 6.67° C | 63% | 1035.4 hPa | 0 mm | - | 0 W/m² | - |
| 1777578003 | 7.78° C | 60% | 1035.4 hPa | 0 mm | - | 0 W/m² | - |
| 1777577403 | 7.78° C | 58% | 1035.2 hPa | 0 mm | - | 0 W/m² | - |
| 1777576803 | 8.33° C | 56% | 1035 hPa | 0 mm | - | 0 W/m² | - |
| 1777576211 | 8.89° C | 57% | 1034.9 hPa | 0 mm | - | 0 W/m² | - |
| 1777575604 | 9.44° C | 53% | 1034.6 hPa | 0 mm | - | 0 W/m² | - |
* Rain latest hour (hover to see other rain measurements)
** Current wind speed in m/s (hover to see current wind gust speed)